| time (UTC) | temp F | wind direction | speed MPH | gust MPH | rain 1hr in | rain 24hr in | rain mn in | humidity % | barometer mb |
| 20260505174515 | 80 | 185 | 4.0 | 9.0 | 0.00 | 0.00 | 0.00 | 84 | 1009.2 |
| 20260505173037 | 80 | 186 | 3.0 | 9.0 | 0.00 | 0.00 | 0.00 | 84 | 1009.4 |
| 20260505171513 | 80 | 178 | 4.0 | 10.0 | 0.00 | 0.00 | 0.00 | 82 | 1009.4 |
| 20260505170020 | 79 | 196 | 2.0 | 11.0 | 0.00 | 0.00 | 0.00 | 83 | 1009.5 |
| 20260505164517 | 78 | 182 | 3.0 | 12.0 | 0.00 | 0.00 | 0.00 | 84 | 1009.5 |
| 20260505163012 | 77 | 192 | 3.0 | 8.0 | 0.00 | 0.00 | 0.00 | 88 | 1009.4 |
| 20260505161520 | 77 | 200 | 1.0 | 4.0 | 0.00 | 0.00 | 0.00 | 88 | 1009.5 |
| 20260505153012 | 77 | 209 | 4.0 | 9.0 | 0.00 | 0.00 | 0.00 | 87 | 1009.2 |
| 20260505151538 | 77 | 192 | 4.0 | 10.0 | 0.00 | 0.00 | 0.00 | 86 | 1009.4 |
| 20260505124520 | 73 | 178 | 2.0 | 7.0 | 0.00 | 0.00 | 0.00 | 89 | 1008.7 |
| 20260505123029 | 73 | 184 | 3.0 | 8.0 | 0.00 | 0.00 | 0.00 | 89 | 1008.8 |
| 20260505121528 | 73 | 208 | 3.0 | 9.0 | 0.00 | 0.00 | 0.00 | 89 | 1008.3 |
| 20260505120013 | 73 | 198 | 3.0 | 8.0 | 0.00 | 0.00 | 0.00 | 88 | 1008.3 |
| 20260505114535 | 73 | 193 | 3.0 | 9.0 | 0.00 | 0.00 | 0.00 | 88 | 1008.7 |
| 20260505113018 | 73 | 222 | 3.0 | 10.0 | 0.00 | 0.00 | 0.00 | 88 | 1008.3 |
| 20260505111536 | 73 | 205 | 4.0 | 9.0 | 0.00 | 0.00 | 0.00 | 88 | 1008.1 |
| 20260505101531 | 72 | 200 | 3.0 | 7.0 | 0.00 | 0.00 | 0.00 | 89 | 1008.5 |
| 20260505100028 | 72 | 206 | 3.0 | 10.0 | 0.00 | 0.00 | 0.00 | 89 | 1008.4 |
| 20260505094546 | 71 | 181 | 3.0 | 5.0 | 0.00 | 0.00 | 0.00 | 90 | 1008.4 |
| 20260505093023 | 71 | 175 | 2.0 | 6.0 | 0.00 | 0.00 | 0.00 | 90 | 1008.6 |
| 20260505091523 | 71 | 176 | 2.0 | 8.0 | 0.00 | 0.00 | 0.00 | 90 | 1008.7 |
| 20260505090018 | 70 | 208 | 3.0 | 5.0 | 0.00 | 0.00 | 0.00 | 90 | 1008.7 |
| 20260505084513 | 71 | 191 | 2.0 | 5.0 | 0.00 | 0.00 | 0.00 | 90 | 1008.8 |
| 20260505083018 | 71 | 196 | 3.0 | 7.0 | 0.00 | 0.00 | 0.00 | 89 | 1008.8 |
| 20260505081513 | 70 | 192 | 4.0 | 10.0 | 0.00 | 0.00 | 0.00 | 89 | 1009.1 |
| 20260505080034 | 70 | 188 | 2.0 | 4.0 | 0.00 | 0.00 | 0.00 | 89 | 1009.0 |
| 20260505074531 | 70 | 217 | 3.0 | 8.0 | 0.00 | 0.00 | 0.00 | 89 | 1009.1 |
| 20260505073011 | 70 | 196 | 1.0 | 5.0 | 0.00 | 0.00 | 0.00 | 89 | 1009.4 |
| 20260505071535 | 70 | 193 | 2.0 | 7.0 | 0.00 | 0.00 | 0.00 | 88 | 1009.4 |
| 20260505070028 | 70 | 194 | 3.0 | 7.0 | 0.00 | 0.00 | 0.00 | 89 | 1009.4 |
| 20260505064529 | 70 | 187 | 3.0 | 7.0 | 0.00 | 0.00 | 0.00 | 88 | 1009.7 |
| 20260505063029 | 70 | 196 | 2.0 | 8.0 | 0.00 | 0.00 | 0.00 | 88 | 1009.9 |
| 20260505061533 | 70 | 192 | 2.0 | 6.0 | 0.00 | 0.00 | 0.00 | 87 | 1010.1 |
| 20260505060012 | 70 | 196 | 2.0 | 9.0 | 0.00 | 0.00 | 0.00 | 87 | 1010.1 |
| 20260505054548 | 70 | 184 | 3.0 | 5.0 | 0.00 | 0.00 | 0.00 | 86 | 1010.3 |
| 20260505053012 | 70 | 179 | 4.0 | 9.0 | 0.00 | 0.00 | 0.00 | 86 | 1010.4 |
| 20260505051835 | 70 | 195 | 3.0 | 10.0 | 0.00 | 0.00 | 0.00 | 86 | 1010.5 |
| 20260505041515 | 72 | 182 | 2.0 | 8.0 | 0.00 | 0.00 | 0.00 | 83 | 1010.6 |
| 20260505040037 | 72 | 154 | 2.0 | 7.0 | 0.00 | 0.00 | 0.00 | 81 | 1010.8 |
| 20260505034537 | 73 | 177 | 2.0 | 11.0 | 0.00 | 0.00 | 0.00 | 80 | 1011.0 |
| 20260505033013 | 73 | 192 | 3.0 | 13.0 | 0.00 | 0.00 | 0.00 | 79 | 1011.0 |
| 20260505031529 | 73 | 197 | 4.0 | 9.0 | 0.00 | 0.00 | 0.00 | 79 | 1011.0 |
| 20260505030011 | 73 | 190 | 2.0 | 11.0 | 0.00 | 0.00 | 0.00 | 79 | 1010.8 |
| 20260505024537 | 73 | 162 | 3.0 | 11.0 | 0.00 | 0.00 | 0.00 | 78 | 1010.9 |
| 20260505023021 | 73 | 165 | 5.0 | 11.0 | 0.00 | 0.00 | 0.00 | 78 | 1010.8 |
| 20260505021520 | 73 | 213 | 3.0 | 10.0 | 0.00 | 0.00 | 0.00 | 77 | 1010.8 |
| 20260505020022 | 73 | 162 | 3.0 | 11.0 | 0.00 | 0.00 | 0.00 | 78 | 1010.7 |
| 20260505014517 | 73 | 153 | 4.0 | 10.0 | 0.00 | 0.00 | 0.00 | 77 | 1010.3 |
| 20260505013037 | 73 | 208 | 4.0 | 10.0 | 0.00 | 0.00 | 0.00 | 77 | 1010.2 |
| 20260505011528 | 74 | 133 | 3.0 | 12.0 | 0.00 | 0.00 | 0.00 | 77 | 1010.4 |
| 20260505010023 | 74 | 173 | 2.0 | 9.0 | 0.00 | 0.00 | 0.00 | 78 | 1010.3 |
| 20260505004526 | 75 | 171 | 2.0 | 9.0 | 0.00 | 0.00 | 0.00 | 75 | 1010.2 |
| 20260505003021 | 76 | 171 | 2.0 | 7.0 | 0.00 | 0.00 | 0.00 | 74 | 1010.3 |
| 20260505001538 | 76 | 169 | 2.0 | 8.0 | 0.00 | 0.00 | 0.00 | 75 | 1010.4 |
| 20260505000011 | 76 | 200 | 3.0 | 10.0 | 0.00 | 0.00 | 0.00 | 72 | 1010.3 |
| 20260504234512 | 77 | 157 | 3.0 | 10.0 | 0.00 | 0.00 | 0.00 | 70 | 1010.4 |
| 20260504233030 | 77 | 173 | 4.0 | 11.0 | 0.00 | 0.00 | 0.00 | 70 | 1010.5 |
| 20260504231531 | 78 | 168 | 6.0 | 11.0 | 0.00 | 0.00 | 0.00 | 70 | 1010.7 |
| 20260504230050 | 79 | 182 | 2.0 | 10.0 | 0.00 | 0.00 | 0.00 | 68 | 1010.7 |
| 20260504224524 | 80 | 208 | 3.0 | 13.0 | 0.00 | 0.00 | 0.00 | 67 | 1010.8 |
| 20260504223029 | 80 | 201 | 6.0 | 16.0 | 0.00 | 0.00 | 0.00 | 67 | 1011.0 |
| 20260504221517 | 80 | 161 | 2.0 | 13.0 | 0.00 | 0.00 | 0.00 | 67 | 1011.2 |
| 20260504220018 | 80 | 183 | 4.0 | 10.0 | 0.00 | 0.00 | 0.00 | 66 | 1011.2 |
| 20260504214520 | 81 | 135 | 4.0 | 12.0 | 0.00 | 0.00 | 0.00 | 66 | 1011.2 |
| 20260504213020 | 83 | 176 | 5.0 | 13.0 | 0.00 | 0.00 | 0.00 | 63 | 1011.6 |
| 20260504211515 | 85 | 184 | 1.0 | 8.0 | 0.00 | 0.00 | 0.00 | 63 | 1011.7 |
| 20260504210024 | 84 | 191 | 1.0 | 8.0 | 0.00 | 0.00 | 0.00 | 63 | 1012.0 |
| 20260504204524 | 84 | 130 | 1.0 | 9.0 | 0.00 | 0.00 | 0.00 | 62 | 1012.0 |
| 20260504203019 | 83 | 148 | 5.0 | 10.0 | 0.00 | 0.00 | 0.00 | 61 | 1012.3 |
| 20260504201538 | 83 | 141 | 2.0 | 10.0 | 0.00 | 0.00 | 0.00 | 63 | 1012.4 |
| 20260504200014 | 83 | 128 | 3.0 | 14.0 | 0.00 | 0.00 | 0.00 | 61 | 1012.7 |
| 20260504194526 | 83 | 138 | 3.0 | 8.0 | 0.00 | 0.00 | 0.00 | 58 | 1012.8 |
| 20260504193045 | 84 | 206 | 4.0 | 9.0 | 0.00 | 0.00 | 0.00 | 57 | 1013.1 |
| 20260504191527 | 84 | 180 | 3.0 | 11.0 | 0.00 | 0.00 | 0.00 | 54 | 1013.4 |
| 20260504190045 | 84 | 185 | 5.0 | 10.0 | 0.00 | 0.00 | 0.00 | 53 | 1013.3 |
| 20260504184525 | 83 | 193 | 5.0 | 15.0 | 0.00 | 0.00 | 0.00 | 57 | 1013.7 |
| 20260504183025 | 83 | 188 | 4.0 | 11.0 | 0.00 | 0.00 | 0.00 | 57 | 1013.5 |
| 20260504181512 | 82 | 192 | 3.0 | 11.0 | 0.00 | 0.00 | 0.00 | 57 | 1014.0 |
| 20260504180012 | 81 | 186 | 4.0 | 10.0 | 0.00 | 0.00 | 0.00 | 61 | 1014.1 |